OOVKB ELLX-EHRD

Flight info

Callsign OOVKB
Flight time N/A
Altitude 12000
Route SID LNO L607 GILOM M624 NIK L191 VICOT N873 DOFMU STAR
Aircraft C25C/M-SDELY/S

Departure

Time 2026-04-27 13:35
Airport Luxembourg-Findel International Airport (ELLX)

Arrival

Time N/A
Airport Rotterdam The Hague Airport (EHRD)
Time Latitude Longitude Altitude Speed Heading
2026-04-27 13:15 49.63531 6.22665 1209 ft 0 kts 243°
2026-04-27 13:28 49.63505 6.22656 1208 ft 6 kts 126°
2026-04-27 13:28 49.63477 6.22748 1206 ft 5 kts 171°
2026-04-27 13:28 49.63386 6.22632 1199 ft 31 kts 240°
2026-04-27 13:28 49.63265 6.22262 1205 ft 43 kts 242°
2026-04-27 13:29 49.63213 6.22107 1206 ft 8 kts 248°
2026-04-27 13:29 49.63183 6.21988 1206 ft 16 kts 248°
2026-04-27 13:29 49.63123 6.21804 1202 ft 22 kts 242°
2026-04-27 13:29 49.63083 6.21675 1201 ft 25 kts 246°
2026-04-27 13:30 49.63029 6.21494 1198 ft 13 kts 243°
2026-04-27 13:30 49.63001 6.21407 1199 ft 13 kts 244°
2026-04-27 13:30 49.62969 6.21280 1200 ft 13 kts 247°
2026-04-27 13:30 49.62934 6.21166 1200 ft 13 kts 242°
2026-04-27 13:31 49.62891 6.21047 1202 ft 12 kts 244°
2026-04-27 13:31 49.62853 6.20924 1201 ft 14 kts 245°
2026-04-27 13:31 49.62811 6.20784 1200 ft 14 kts 242°
2026-04-27 13:31 49.62738 6.20664 1196 ft 17 kts 221°
2026-04-27 13:32 49.62634 6.20532 1189 ft 17 kts 232°
2026-04-27 13:32 49.62550 6.20388 1184 ft 20 kts 226°
2026-04-27 13:32 49.62469 6.20200 1182 ft 21 kts 237°
2026-04-27 13:32 49.62389 6.20003 1179 ft 22 kts 240°
2026-04-27 13:33 49.62351 6.19891 1179 ft 8 kts 243°
2026-04-27 13:33 49.62319 6.19804 1178 ft 12 kts 242°
2026-04-27 13:33 49.62266 6.19663 1173 ft 18 kts 239°
2026-04-27 13:33 49.62228 6.19568 1174 ft 9 kts 225°
2026-04-27 13:34 49.62130 6.19600 1172 ft 18 kts 150°
2026-04-27 13:34 49.62117 6.19737 1173 ft 16 kts 58°
2026-04-27 13:34 49.62313 6.20265 1181 ft 110 kts 59°
2026-04-27 13:34 49.62803 6.21704 1455 ft 177 kts 64°
2026-04-27 13:35 49.63421 6.23659 2322 ft 215 kts 66°
2026-04-27 13:35 49.63899 6.25586 4673 ft 179 kts 70°
2026-04-27 13:35 49.64406 6.27187 5650 ft 160 kts 55°
2026-04-27 13:35 49.65125 6.28598 6567 ft 173 kts 49°
2026-04-27 13:36 49.66105 6.29701 7621 ft 181 kts 17°
2026-04-27 13:36 49.67357 6.29851 8734 ft 182 kts 348°
2026-04-27 13:36 49.68548 6.29174 9917 ft 183 kts 328°
2026-04-27 13:36 49.69558 6.27980 11019 ft 183 kts 314°
2026-04-27 13:37 49.70429 6.26516 11977 ft 195 kts 309°
2026-04-27 13:37 49.71478 6.24831 12224 ft 243 kts 316°
2026-04-27 13:37 49.72997 6.23153 12267 ft 295 kts 328°
2026-04-27 13:37 49.74998 6.21739 12279 ft 337 kts 338°
2026-04-27 13:38 49.77331 6.20686 12289 ft 369 kts 345°
2026-04-27 13:38 49.79736 6.19774 12235 ft 335 kts 343°
2026-04-27 13:38 49.81860 6.18691 12245 ft 317 kts 337°
2026-04-27 13:38 49.83839 6.17393 12253 ft 303 kts 334°
2026-04-27 13:39 49.85722 6.16099 12265 ft 292 kts 334°
2026-04-27 13:39 49.87571 6.14913 12276 ft 285 kts 336°
2026-04-27 13:39 49.89396 6.13815 12270 ft 279 kts 336°
2026-04-27 13:39 49.91192 6.12744 12266 ft 275 kts 336°
2026-04-27 13:40 49.92966 6.11671 12264 ft 273 kts 336°
2026-04-27 13:40 49.94720 6.10595 12272 ft 269 kts 336°
2026-04-27 13:40 49.96452 6.09527 12273 ft 267 kts 336°
2026-04-27 13:40 49.98186 6.08462 12277 ft 273 kts 336°
2026-04-27 13:41 50.00012 6.07336 12277 ft 290 kts 336°
2026-04-27 13:41 50.00985 6.06735 12275 ft 298 kts 336°